This is the latest recevied weather packets stored in our database for station/object K1RFS. If no packets are shown the sender has not sent any weather packets the latest 10 day(s).
| Time | Temp. | Humidity | Pressure | Rain* | Wind** | Luminosity | Snow |
|---|---|---|---|---|---|---|---|
| 1788190856 | 23.33° C | 47% | 1003.7 hPa | 0 mm | - | 34 W/m² | - |
| 1788190555 | 22.78° C | 48% | 1003.9 hPa | 0 mm | - | 34 W/m² | - |
| 1788190252 | 22.22° C | 50% | 1003.9 hPa | 0 mm | - | 33 W/m² | - |
| 1788189947 | 21.67° C | 51% | 1004.1 hPa | 0 mm | - | 32 W/m² | - |
| 1788189643 | 21.11° C | 58% | 1003.9 hPa | 0 mm | - | 31 W/m² | - |
| 1788189342 | 20.56° C | 59% | 1003.9 hPa | 0 mm | - | 31 W/m² | - |
| 1788189037 | 20.56° C | 60% | 1003.9 hPa | 0 mm | - | 34 W/m² | - |
| 1788188732 | 20° C | 61% | 1004.1 hPa | 0 mm | - | 51 W/m² | - |
| 1788188429 | 19.44° C | 63% | 1004.1 hPa | 0 mm | - | 54 W/m² | - |
| 1788188122 | 19.44° C | 66% | 1004.2 hPa | 0 mm | - | 40 W/m² | - |
| 1788187819 | 19.44° C | 66% | 1004.1 hPa | 0 mm | - | 33 W/m² | - |
| 1788187514 | 18.89° C | 67% | 1004.2 hPa | 0 mm | - | 31 W/m² | - |
| 1788187209 | 18.89° C | 66% | 1004.1 hPa | 0 mm | - | 33 W/m² | - |
| 1788186904 | 18.33° C | 67% | 1004.2 hPa | 0 mm | - | 37 W/m² | - |
| 1788186599 | 18.33° C | 68% | 1004.2 hPa | 0 mm | - | 39 W/m² | - |
| 1788186296 | 18.33° C | 69% | 1004.2 hPa | 0 mm | - | 35 W/m² | - |
| 1788185990 | 17.78° C | 69% | 1004.4 hPa | 0 mm | - | 27 W/m² | - |
| 1788185684 | 17.78° C | 70% | 1004 hPa | 0 mm | - | 24 W/m² | - |
| 1788185379 | 17.22° C | 71% | 1004.1 hPa | 0 mm | - | 26 W/m² | - |
| 1788185079 | 17.22° C | 71% | 1004.1 hPa | 0 mm | - | 29 W/m² | - |
| 1788184778 | 16.67° C | 71% | 1004.2 hPa | 0 mm | - | 33 W/m² | - |
| 1788184477 | 16.11° C | 73% | 1004 hPa | 0 mm | - | 34 W/m² | - |
| 1788184172 | 15.56° C | 74% | 1003.9 hPa | 0 mm | - | 30 W/m² | - |
| 1788183869 | 15° C | 75% | 1003.9 hPa | 0 mm | - | 26 W/m² | - |
| 1788183568 | 15° C | 74% | 1003.9 hPa | 0 mm | - | 20 W/m² | - |
* Rain latest hour (hover to see other rain measurements)
** Current wind speed in m/s (hover to see current wind gust speed)